Location: Morning Glory
(31.5701°N, 106.2158°W)
Time: 10:51:19
(UTC+00:00)

Hubble Space Telescope - Visible Passes

Search period start: 08 December 2022 00:00
Search period end: 18 December 2022 00:00
Orbit: 530 x 534 km, 28.5° (Epoch: 07 December)

Date Brightness Start Highest point End Pass type
(mag) Time Alt. Az. Time Alt. Az. Time Alt. Az.
08 Dec 3.1 11:24:38 19° SE 11:24:38 19° SE 11:26:43 10° ESE visible
08 Dec 1.6 13:00:21 10° WSW 13:04:17 46° S 13:08:12 10° E visible
09 Dec 3.5 11:13:01 16° ESE 11:13:01 16° ESE 11:14:15 10° ESE visible
09 Dec 1.4 12:48:15 14° WSW 12:51:35 50° S 12:55:33 10° E visible
10 Dec 3.9 11:01:19 12° ESE 11:01:19 12° ESE 11:01:42 10° ESE visible
10 Dec 1.3 12:36:32 22° WSW 12:38:54 53° S 12:42:54 10° E visible
11 Dec 1.2 12:24:44 34° WSW 12:26:13 55° S 12:30:13 10° E visible
12 Dec 1.1 12:12:53 49° SW 12:13:31 56° S 12:17:32 10° ESE visible
13 Dec 1.1 12:00:59 55° S 12:00:59 55° S 12:04:49 10° ESE visible
14 Dec 1.8 11:49:03 42° SE 11:49:03 42° SE 11:52:07 10° ESE visible
14 Dec 2.2 13:25:19 10° WSW 13:28:53 29° SSW 13:32:28 10° SE visible
15 Dec 2.5 11:37:07 29° SE 11:37:07 29° SE 11:39:23 10° ESE visible
15 Dec 2.4 13:12:45 10° WSW 13:16:09 25° SSW 13:19:32 10° SE visible
16 Dec 3.2 11:25:10 20° ESE 11:25:10 20° ESE 11:26:37 10° ESE visible
16 Dec 2.5 13:00:23 11° WSW 13:03:23 21° SSW 13:06:31 10° SSE visible
17 Dec 3.7 11:13:14 14° ESE 11:13:14 14° ESE 11:13:50 10° ESE visible
17 Dec 2.7 12:48:27 13° WSW 12:50:36 18° SSW 12:53:25 10° SSE visible
